Regional Weather Roundup
Issued by NWS Huntsville, AL

Home | Current Version | Previous Version | Text Only | Print | Product List | Glossary On
Versions: 1 2 3 4 5 6 7 8 9 10 11 12 13 14 15 16 17 18 19 20 21 22 23 24 25 26 27
000
ASUS44 KHUN 250210
RWRHUN

WEATHER ROUNDUP FOR THE TENNESSEE VALLEY
NATIONAL WEATHER SERVICE HUNTSVILLE AL
900 PM CDT WED AUG 24 2016

ALZ001>004-250300-
NORTHWEST ALABAMA

CITY           SKY/WX    TMP DP  RH WIND       PRES   REMARKS
COURTLAND HCN    N/A     81 N/A N/A CALM        N/A
RUSSELLVILLE     N/A     77 N/A N/A MISG        N/A
SHOALS AIRPORT CLEAR     81  74  79 CALM      30.14R
SHOALS TVA RES   N/A     79 N/A N/A MISG        N/A
$$

ALZ005>007-016-250300-
NORTH CENTRAL ALABAMA

CITY           SKY/WX    TMP DP  RH WIND       PRES   REMARKS
CULLMAN AG STN   N/A     77 N/A N/A CALM        N/A
DECATUR AP     CLEAR     79  75  87 CALM      30.15R
HUNTSVILLE AP  PTCLDY    85  73  67 CALM      30.14R HX  91
MERIDIANVILLE  CLEAR     77  68  73 CALM      30.15R
REDSTONE ARSN  CLEAR     82  72  71 CALM      30.14R
VINEMONT AP    FAIR      78  73  84 CALM      30.19R
$$

ALZ008>010-250300-
NORTHEAST ALABAMA

CITY           SKY/WX    TMP DP  RH WIND       PRES   REMARKS
ALBERTVILLE    PTCLDY    81  77  89 E6        30.18R
FORT PAYNE     PTCLDY    79  70  73 CALM      30.18R
SCOTTSBORO AP  CLEAR     82  73  74 S7        30.17R
SCOTTSBORO HCN   N/A     77 N/A N/A MISG        N/A
VALLEY HEAD      N/A     81 N/A N/A MISG        N/A
$$

TNZ076-096-097-250300-
SOUTHEASTERN MIDDLE TENNESSEE

CITY           SKY/WX    TMP DP  RH WIND       PRES   REMARKS
TULLAHOMA      CLEAR     75  72  88 CALM      30.19R
WINCHESTER     CLEAR     75  73  94 CALM      30.18S
$$

...SURROUNDING SITES...

CITY           SKY/WX    TMP DP  RH WIND       PRES   REMARKS
ATLANTA        MOCLDY    78  72  81 E5        30.21R
ANNISTON       CLOUDY    81  72  74 NE6       30.19R
BIRMINGHAM     PTCLDY    82  76  81 CALM      30.18R
CHATTANOOGA    PTCLDY    82  69  64 S5        30.19R
DALTON         PTCLDY    77  72  83 CALM      30.21R
GADSDEN        CLEAR     82  74  76 SE5       30.17R
GOLDEN TRNGL   CLEAR     84  72  65 S5        30.12R
HALEYVILLE     FAIR      78  74  87 CALM      30.18R
JACKSON TN     CLEAR     79  77  94 CALM      30.10S
MEMPHIS        PTCLDY    84  74  71 SW5       30.11R HX  91
NASHVILLE      MOCLDY    82  73  74 S3        30.14R
OXFORD MS      FAIR      81  73  78 CALM      30.14R
ROME           PTCLDY    79  71  76 S5        30.19R
SAVANNAH       CLEAR     81  77  89 CALM      30.11R
TUPELO         CLEAR     83  74  74 CALM      30.11S
TUSCALOOSA     CLEAR     80  78  94 CALM      30.13R
$$

...GULF COAST WEATHER...

CITY           SKY/WX    TMP DP  RH WIND       PRES   REMARKS
GULFPORT       MOCLDY    78  76  93 CALM      30.11R
PASCAGOULA     CLOUDY    80  79  96 CALM      30.11R
MOBILE         CLOUDY    81  78  91 NE3       30.13R
GULF SHORES    CLOUDY    82  81  97 S7        30.12R HX  94
PENSACOLA      CLOUDY    83  78  85 SE7       30.12R HX  93
DESTIN         PTCLDY    84  78  82 CALM      30.12R HX  95
PANAMA CITY    MOCLDY    79  78  96 NE5       30.14R
APPALACHICOLA  PTCLDY    81  79  94 N3        30.11R HX  90
$$





USA.gov is the U.S. government's official web portal to all federal, state and local government web resources and services.